NOAA NWS Hourly Roundups by Site

Regional Weather Roundup for Seattle, WA

To Select Another Site Choose from List

Select Site:  

000
ASUS46 KSEW 191220
RWRWA

WASHINGTON REGIONAL WEATHER ROUNDUP
NATIONAL WEATHER SERVICE SEATTLE WA
400 AM PST TUE JAN 19 2021

NOTE:"FAIR" INDICATES FEW OR NO CLOUDS BELOW 12,000 FEET WITH NO
SIGNIFICANT WEATHER AND/OR OBSTRUCTIONS TO VISIBILITY.

WAZ507-509-555>559-191300-
SEATTLE, TACOMA, EVERETT, AND VICINITY

CITY           SKY/WX    TMP DP  RH WIND       PRES   REMARKS
EVERETT        MOCLDY    35  33  92 CALM      30.52F
6HR MIN TEMP:  34; 6HR MAX TEMP:  40;

BOEING FIELD   CLOUDY    39  37  92 N3        30.54F FOG
6HR MIN TEMP:  37; 6HR MAX TEMP:  41;

RENTON           N/A     35  33  92 CALM      30.54S VSB 1/2
6HR MIN TEMP:  33; 6HR MAX TEMP:  40;

SEATAC AIRPORT FOG       38  38 100 CALM      30.52F VSB 1/8
6HR MIN TEMP:  36; 6HR MAX TEMP:  39;

JBLM-MCCHORD   CLOUDY    33  33  97 S3        30.53F FOG
6HR MIN TEMP:  28; 6HR MAX TEMP:  33;

PUYALLUP       FOG       32  32 100 CALM      30.52F VSB 1/2
BREMERTON      FOG       30  30 100 SW3       30.53S VSB 1/4
6HR MIN TEMP:  30; 6HR MAX TEMP:  40;

JBLM-FT LEWIS  CLOUDY    32  32 100 SE3       30.52F FOG
6HR MIN TEMP:  29; 6HR MAX TEMP:  35;

TACOMA NARROWS CLOUDY    39  36  89 CALM      30.53S
6HR MIN TEMP:  37; 6HR MAX TEMP:  41;

$$

WAZ001-503-506-510-514-515-191300-
NORTH INTERIOR

CITY           SKY/WX    TMP DP  RH WIND       PRES   REMARKS
BELLINGHAM     CLOUDY    33  32  96 CALM      30.53F
6HR MIN TEMP:  31; 6HR MAX TEMP:  35;

FRIDAY HARBOR  MOCLDY    38  37  97 CALM      30.54F
6HR MIN TEMP:  37; 6HR MAX TEMP:  40;

EASTSOUND      MOCLDY    39  37  93 CALM      30.52F
PORT ANGELES   CLOUDY    39  36  89 SE5       30.53F
6HR MIN TEMP:  33; 6HR MAX TEMP:  41;

EDIZ HOOK      CLOUDY    41  39  92 S7        30.54F
6HR MIN TEMP:  40; 6HR MAX TEMP:  43;

PORT TOWNSEND  CLOUDY    34  34 100 CALM      30.52F
NAS WHIDBEY    MOCLDY    35  32  88 SE8       30.57F
6HR MIN TEMP:  32; 6HR MAX TEMP:  38;

ARLINGTON      MOCLDY    28  28 100 CALM      30.53F
6HR MIN TEMP:  29; 6HR MAX TEMP:  33;

BURLINGTON     CLEAR     36  34  93 NE5       30.54S
$$

WAZ020-022-039-040-504-511-512-191300-
SOUTHWEST INTERIOR

CITY           SKY/WX    TMP DP  RH WIND       PRES   REMARKS
SHELTON        CLOUDY    30  29  96 CALM      30.51S FOG
6HR MIN TEMP:  29; 6HR MAX TEMP:  38;

OLYMPIA        CLOUDY    35  35 100 CALM      30.53F
6HR MIN TEMP:  28; 6HR MAX TEMP:  39;

CHEHALIS       FOG       34  34 100 CALM      30.54S VSB<1/4
KELSO          MOCLDY    30  28  93 CALM      30.54S
6HR MIN TEMP:  29; 6HR MAX TEMP:  37;

VANCOUVER      CLEAR     35  30  82 CALM      30.50F
6HR MIN TEMP:  30; 6HR MAX TEMP:  37;

SCAPPOOSE, OR  CLEAR     31  29  92 CALM      30.50F
6HR MIN TEMP:  30; 6HR MAX TEMP:  38;

PORTLAND, OR   CLEAR     34  31  88 CALM      30.51S
6HR MIN TEMP:  31; 6HR MAX TEMP:  39;

$$

WAZ021-516-517-191300-
WASHINGTON COAST

CITY           SKY/WX    TMP DP  RH WIND       PRES   REMARKS
FORKS          CLOUDY    37  35  92 E3        30.51F
6HR MIN TEMP:  34; 6HR MAX TEMP:  37;

HOQUIAM        PTCLDY    39  35  86 NE6       30.51F
6HR MIN TEMP:  38; 6HR MAX TEMP:  42;

ASTORIA, OR    MOCLDY    34  32  92 CALM      30.49S
6HR MIN TEMP:  32; 6HR MAX TEMP:  43;

$$

WAZ019-023-024-040-567>569-191300-
CASCADE MOUNTAINS AND COLUMBIA GORGE

CITY           SKY/WX    TMP DP  RH WIND       PRES   REMARKS
STAMPEDE PASS  MOCLDY    27  24  89 CALM      30.44S
6HR MIN TEMP:  27; 6HR MAX TEMP:  28;

TROUTDALE, OR  CLEAR     37  35  92 CALM      30.50S
6HR MIN TEMP:  31; 6HR MAX TEMP:  42;

HOOD RIVER, OR SUNNY     30  28  93 S3        30.55S
THE DALLES, OR CLEAR     29  26  89 CALM      30.57S
6HR MIN TEMP:  28; 6HR MAX TEMP:  35;

$$

WAZ026-027-041>044-520-521-191300-
EAST SLOPES

CITY           SKY/WX    TMP DP  RH WIND       PRES   REMARKS
OMAK           PTCLDY    26  20  77 CALM      30.55F
6HR MIN TEMP:  25; 6HR MAX TEMP:  35;

WENATCHEE      PTCLDY    27  24  89 NW3       30.56F
6HR MIN TEMP:  27; 6HR MAX TEMP:  35;

ELLENSBURG     PTCLDY    27  22  81 CALM      30.53F
6HR MIN TEMP:  26; 6HR MAX TEMP:  34;

YAKIMA         CLEAR     28  21  75 W9        30.55F
6HR MIN TEMP:  28; 6HR MAX TEMP:  36;

SUNNYSIDE ARPT SUNNY     28  25  87 CALM      30.56S
6HR MIN TEMP:  29; 6HR MAX TEMP:  41;

YAKIMA TC      FAIR      31  21  68 NW3       30.53S
6HR MIN TEMP:  29; 6HR MAX TEMP:  38;

$$

WAZ028-034-035-191300-
COLUMBIA BASIN

CITY           SKY/WX    TMP DP  RH WIND       PRES   REMARKS
EPHRATA        CLEAR     26  23  88 NW5       30.54F
6HR MIN TEMP:  25; 6HR MAX TEMP:  34;

MOSES LAKE     CLEAR     28  25  88 N5        30.55F
6HR MIN TEMP:  28; 6HR MAX TEMP:  31;

PASCO          CLEAR     24  21  88 CALM      30.59S
6HR MIN TEMP:  23; 6HR MAX TEMP:  29;

RICHLAND ARPT  SUNNY     26  26  99 CALM      30.59S
6HR MIN TEMP:  25; 6HR MAX TEMP:  31;

HERMISTON, OR  CLEAR     25  21  85 SE5       30.55S
6HR MIN TEMP:  23; 6HR MAX TEMP:  32;

$$

WAZ036>038-191300-
NORTHEAST WASHINGTON

CITY           SKY/WX    TMP DP  RH WIND       PRES   REMARKS
SPOKANE GEIGER FOG       26  24  92 SE5       30.51F VSB 1/4
6HR MIN TEMP:  25; 6HR MAX TEMP:  29;

SPOKANE FELTS  FOG       27  26  96 SW3       30.54F VSB 1/4
6HR MIN TEMP:  25; 6HR MAX TEMP:  29;

FAIRCHILD AFB  FOG       23  23 100 E6        30.50F VSB 3/8
6HR MIN TEMP:  23; 6HR MAX TEMP:  26;

COEURDALENE,ID CLOUDY    28  27  96 SE5       30.53S
6HR MIN TEMP:  22; 6HR MAX TEMP:  28; 6HR PCP: TRACE;

DEER PARK      CLEAR     22  19  89 CALM      30.53S
6HR MIN TEMP:  21; 6HR MAX TEMP:  26;

$$

WAZ029>033-191300-
SOUTHEAST WASHINGTON

CITY           SKY/WX    TMP DP  RH WIND       PRES   REMARKS
PULLMAN        CLOUDY    29  27  92 E8        30.50F
6HR MIN TEMP:  26; 6HR MAX TEMP:  29;

LEWISTON, ID   CLOUDY    32  28  85 CALM      30.54F
6HR MIN TEMP:  30; 6HR MAX TEMP:  33;

WALLA WALLA    CLEAR     28  25  88 SE5       30.52F
6HR MIN TEMP:  28; 6HR MAX TEMP:  34;

PENDLETON, OR  CLEAR     27  25  92 SE7       30.52F
6HR MIN TEMP:  25; 6HR MAX TEMP:  33;

$$


 

View Past Reports for Seattle, WA.

Products Courtesy of NOAA-NWS
NWS Information Parsing Script by Ken True at Saratoga Weather - Script by SE Lincoln Weather.